GW2039 Weather Reports


Display with metric or nautical units.
time (UTC)temp
F
wind
direction
speed
MPH
gust
MPH
rain 1hr
in
rain 24hr
in
rain mn
in
humidity
%
barometer
mb
20260903222604 79 80 5.0 11.0 0.00 0.00 0.00 81 1005.2
20260903222503 79 77 5.0 11.0 0.00 0.00 0.00 81 1005.2
20260903222400 79 59 5.0 11.0 0.00 0.00 0.00 80 1005.2
20260903221804 80 57 5.0 9.0 0.00 0.00 0.00 80 1005.3
20260903221705 80 66 5.0 9.0 0.00 0.00 0.00 80 1005.3
20260903221605 80 39 4.0 8.0 0.00 0.00 0.00 80 1005.3
20260903221506 80 71 4.0 8.0 0.00 0.00 0.00 80 1005.3
20260903221406 80 94 4.0 8.0 0.00 0.00 0.00 80 1005.3
20260903221303 80 90 2.0 8.0 0.00 0.00 0.00 80 1005.3
20260903221159 80 76 2.0 8.0 0.00 0.00 0.00 80 1005.3
20260903221100 80 45 2.0 8.0 0.00 0.00 0.00 80 1005.2
20260903221003 80 46 4.0 8.0 0.00 0.00 0.00 80 1005.2
20260903220904 80 70 4.0 8.0 0.00 0.00 0.00 80 1005.2
20260903220803 80 89 3.0 8.0 0.00 0.00 0.00 80 1005.2
20260903220704 80 96 3.0 6.0 0.00 0.00 0.00 80 1005.2
20260903220509 80 42 4.0 6.0 0.00 0.00 0.00 79 1005.2
20260903220359 80 142 4.0 7.0 0.00 0.00 0.00 79 1005.2
20260903220305 80 121 4.0 8.0 0.00 0.00 0.00 79 1005.3
20260903220202 80 72 4.0 8.0 0.00 0.00 0.00 79 1005.2
20260903220010 81 86 4.0 8.0 0.00 0.00 0.00 79 1005.3
20260903215904 81 52 4.0 8.0 0.00 0.00 0.00 78 1005.2
20260903215759 81 146 3.0 8.0 0.00 0.00 0.00 78 1005.1
20260903215703 81 144 3.0 8.0 0.00 0.00 0.00 78 1005.2
20260903215604 81 67 4.0 8.0 0.00 0.00 0.00 78 1005.2
20260903215505 81 107 5.0 8.0 0.00 0.00 0.00 78 1005.3
20260903215305 81 99 4.0 7.0 0.00 0.00 0.00 77 1005.1
20260903215103 81 113 3.0 7.0 0.00 0.00 0.00 77 1005.2
20260903215002 81 107 3.0 7.0 0.00 0.00 0.00 77 1005.2
20260903214902 81 96 3.0 7.0 0.00 0.00 0.00 77 1005.2
20260903214801 81 31 4.0 7.0 0.00 0.00 0.00 77 1005.2
20260903214702 81 36 5.0 7.0 0.00 0.00 0.00 77 1005.1
20260903214504 81 10 4.0 8.0 0.00 0.00 0.00 77 1005.0
20260903214402 81 33 4.0 8.0 0.00 0.00 0.00 77 1005.0
20260903214303 81 34 4.0 8.0 0.00 0.00 0.00 77 1005.0
20260903214202 81 85 5.0 8.0 0.00 0.00 0.00 77 1005.0
20260903214101 81 54 4.0 8.0 0.00 0.00 0.00 77 1005.0
20260903213759 81 24 4.0 7.0 0.00 0.00 0.00 77 1005.0
20260903213700 81 41 5.0 7.0 0.00 0.00 0.00 77 1005.0
20260903213605 81 52 5.0 7.0 0.00 0.00 0.00 77 1005.0
20260903213505 81 59 4.0 7.0 0.00 0.00 0.00 78 1005.0
20260903213400 81 49 2.0 6.0 0.00 0.00 0.00 79 1005.1
20260903213201 81 35 1.0 6.0 0.00 0.00 0.00 79 1005.1
20260903213002 81 80 2.0 6.0 0.00 0.00 0.00 79 1005.0
20260903212904 81 90 2.0 6.0 0.00 0.00 0.00 79 1005.0
20260903212803 81 76 3.0 6.0 0.00 0.00 0.00 79 1005.0
20260903212703 81 106 3.0 6.0 0.00 0.00 0.00 79 1005.0
20260903212602 81 107 3.0 7.0 0.00 0.00 0.00 79 1005.0
20260903212503 81 121 3.0 6.0 0.00 0.00 0.00 79 1005.1
20260903212404 81 98 3.0 6.0 0.00 0.00 0.00 79 1005.0
20260903212300 81 28 3.0 6.0 0.00 0.00 0.00 80 1005.1
20260903212202 81 69 4.0 6.0 0.00 0.00 0.00 80 1005.1
20260903212102 81 103 3.0 6.0 0.00 0.00 0.00 80 1005.0
20260903212010 81 115 2.0 5.0 0.00 0.00 0.00 80 1005.0
20260903211902 81 62 3.0 5.0 0.00 0.00 0.00 80 1005.0
20260903211803 81 95 3.0 5.0 0.00 0.00 0.00 80 1004.9
20260903211701 81 80 2.0 5.0 0.00 0.00 0.00 80 1005.0
20260903211602 81 111 2.0 5.0 0.00 0.00 0.00 80 1004.9
20260903211506 81 134 3.0 5.0 0.00 0.00 0.00 80 1004.9
20260903211404 81 84 3.0 5.0 0.00 0.00 0.00 80 1004.8
20260903211203 81 104 1.0 5.0 0.00 0.00 0.00 80 1004.9
20260903211104 81 111 2.0 5.0 0.00 0.00 0.00 80 1004.9
20260903211006 81 69 2.0 5.0 0.00 0.00 0.00 80 1004.9
20260903210902 81 64 1.0 5.0 0.00 0.00 0.00 80 1004.9
20260903210802 81 83 2.0 5.0 0.00 0.00 0.00 80 1004.9
20260903210702 81 85 3.0 5.0 0.00 0.00 0.00 80 1004.9
20260903210559 81 138 2.0 5.0 0.00 0.00 0.00 80 1004.9
20260903210405 81 126 2.0 6.0 0.00 0.00 0.00 80 1004.9
20260903210201 81 80 1.0 4.0 0.00 0.00 0.00 80 1004.8
20260903210004 81 90 2.0 4.0 0.00 0.00 0.00 80 1004.7
20260903205806 81 88 2.0 4.0 0.00 0.00 0.00 80 1004.7
20260903205511 81 88 2.0 4.0 0.00 0.00 0.00 80 1004.8
20260903205008 81 63 2.0 9.0 0.00 0.00 0.00 80 1004.9
20260903204903 81 65 2.0 9.0 0.00 0.00 0.00 80 1004.9
20260903204803 81 126 2.0 9.0 0.00 0.00 0.00 80 1004.9
20260903204711 81 64 1.0 9.0 0.00 0.00 0.00 80 1004.9
20260903204603 81 119 2.0 9.0 0.00 0.00 0.00 80 1004.9
20260903204506 81 304 3.0 9.0 0.00 0.00 0.00 80 1005.0
20260903204358 81 84 4.0 9.0 0.00 0.00 0.00 80 1005.0
20260903204304 81 71 5.0 9.0 0.00 0.00 0.00 80 1004.9
20260903204203 81 69 5.0 9.0 0.00 0.00 0.00 80 1005.0
20260903204104 81 94 5.0 9.0 0.00 0.00 0.00 80 1005.0
20260903204008 81 71 5.0 9.0 0.00 0.00 0.00 80 1005.0
20260903203800 81 61 3.0 9.0 0.00 0.00 0.00 80 1005.0
20260903203703 81 87 4.0 6.0 0.00 0.00 0.00 80 1005.0
20260903203504 82 67 3.0 9.0 0.00 0.00 0.00 80 1005.0
20260903203404 82 64 3.0 10.0 0.00 0.00 0.00 80 1005.0
20260903203300 82 87 3.0 10.0 0.00 0.00 0.00 80 1005.0
20260903203200 82 64 2.0 10.0 0.00 0.00 0.00 80 1005.2
20260903203102 82 85 2.0 10.0 0.00 0.00 0.00 80 1005.2
20260903203002 82 29 3.0 10.0 0.00 0.00 0.00 79 1005.2
20260903202800 82 68 4.0 12.0 0.00 0.00 0.00 79 1005.3
20260903202659 82 42 6.0 12.0 0.00 0.00 0.00 79 1005.3
20260903202506 82 59 5.0 12.0 0.00 0.00 0.00 80 1005.4
20260903202159 82 53 6.0 12.0 0.00 0.00 0.00 80 1005.4
20260903202105 82 42 6.0 13.0 0.00 0.00 0.00 80 1005.5
20260903202008 82 48 4.0 13.0 0.00 0.00 0.00 80 1005.4
20260903201903 82 52 5.0 13.0 0.00 0.00 0.00 81 1005.5
20260903201803 82 60 6.0 13.0 0.00 0.00 0.00 81 1005.4
20260903201705 82 57 6.0 13.0 0.00 0.00 0.00 81 1005.4
20260903201601 82 59 6.0 13.0 0.00 0.00 0.00 81 1005.5
20260903201405 82 59 7.0 13.0 0.00 0.00 0.00 82 1005.5
20260903201304 82 85 9.0 13.0 0.00 0.00 0.00 82 1005.6
20260903201202 82 59 9.0 13.0 0.00 0.00 0.00 83 1005.7
20260903201107 82 56 7.0 12.0 0.00 0.00 0.00 83 1005.7
20260903201002 82 44 5.0 11.0 0.00 0.00 0.00 84 1005.7
20260903200902 82 49 4.0 10.0 0.00 0.00 0.00 84 1005.7
20260903200805 82 42 5.0 10.0 0.00 0.00 0.00 84 1005.6
20260903200704 83 70 6.0 10.0 0.00 0.00 0.00 84 1005.6
20260903200602 83 26 4.0 9.0 0.00 0.00 0.00 84 1005.7
20260903200507 83 79 5.0 10.0 0.00 0.00 0.00 84 1005.7
20260903200403 82 67 5.0 10.0 0.00 0.00 0.00 84 1005.7
20260903200302 82 52 4.0 10.0 0.00 0.00 0.00 84 1005.7
20260903200200 83 65 4.0 10.0 0.00 0.00 0.00 83 1005.7
20260903200009 83 71 4.0 10.0 0.00 0.00 0.00 83 1005.7
20260903195904 83 62 4.0 10.0 0.00 0.00 0.00 83 1005.7
20260903195804 83 52 5.0 10.0 0.00 0.00 0.00 83 1005.7
20260903195659 83 93 5.0 10.0 0.00 0.00 0.00 83 1005.7
20260903195600 83 100 5.0 10.0 0.00 0.00 0.00 83 1005.5
20260903195504 83 105 6.0 10.0 0.00 0.00 0.00 83 1005.6
20260903195402 83 107 6.0 10.0 0.00 0.00 0.00 83 1005.5
20260903195306 83 36 7.0 10.0 0.00 0.00 0.00 83 1005.4
20260903195202 83 84 6.0 10.0 0.00 0.00 0.00 83 1005.5
20260903195105 83 62 4.0 10.0 0.00 0.00 0.00 83 1005.5
20260903195008 83 50 5.0 10.0 0.00 0.00 0.00 83 1005.4
20260903194904 83 67 5.0 10.0 0.00 0.00 0.00 83 1005.4
20260903194800 83 91 4.0 10.0 0.00 0.00 0.00 83 1005.4
20260903194704 83 74 4.0 10.0 0.00 0.00 0.00 83 1005.3
20260903194603 83 60 3.0 8.0 0.00 0.00 0.00 83 1005.3
20260903194508 83 65 4.0 8.0 0.00 0.00 0.00 83 1005.4
20260903194402 83 66 4.0 8.0 0.00 0.00 0.00 82 1005.3
20260903194259 83 74 4.0 8.0 0.00 0.00 0.00 82 1005.4
20260903194201 83 107 4.0 6.0 0.00 0.00 0.00 82 1005.4
20260903194100 83 49 3.0 6.0 0.00 0.00 0.00 82 1005.4
20260903193903 83 74 3.0 6.0 0.00 0.00 0.00 82 1005.3
20260903193804 83 74 3.0 6.0 0.00 0.00 0.00 82 1005.4
20260903193752 84 80 3.0 6.0 0.00 0.00 0.00 82 1005.4
20260903193701 84 84 2.0 6.0 0.00 0.00 0.00 82 1005.4
20260903171100 86 94 3.0 6.0 0.00 0.00 0.00 80 1005.3
20260903170857 86 97 3.0 4.0 0.00 0.00 0.00 80 1005.2
20260903170759 86 88 2.0 6.0 0.00 0.00 0.00 80 1005.3
20260903170701 86 119 2.0 6.0 0.00 0.00 0.00 80 1005.2
20260903170556 86 88 2.0 6.0 0.00 0.00 0.00 80 1005.2
20260903170400 86 46 2.0 6.0 0.00 0.00 0.00 80 1005.2
20260903170200 87 140 2.0 6.0 0.00 0.00 0.00 80 1005.3
20260903170056 87 109 3.0 6.0 0.00 0.00 0.00 81 1005.3
20260903165900 87 87 2.0 6.0 0.00 0.00 0.00 81 1005.3
20260903165756 87 107 1.0 6.0 0.00 0.00 0.00 82 1005.3
20260903165700 87 132 2.0 6.0 0.00 0.00 0.00 82 1005.3
20260903165558 87 98 2.0 6.0 0.00 0.00 0.00 82 1005.3
20260903165501 87 97 2.0 6.0 0.00 0.00 0.00 82 1005.3
20260903165256 88 76 3.0 5.0 0.00 0.00 0.00 82 1005.3
20260903165159 88 103 3.0 5.0 0.00 0.00 0.00 82 1005.3
20260903165101 88 101 2.0 5.0 0.00 0.00 0.00 82 1005.3
20260903165006 88 85 2.0 5.0 0.00 0.00 0.00 82 1005.3
20260903164856 88 104 1.0 4.0 0.00 0.00 0.00 82 1005.3
20260903164756 88 71 1.0 4.0 0.00 0.00 0.00 82 1005.2
20260903164701 88 90 2.0 4.0 0.00 0.00 0.00 82 1005.3
20260903164556 88 101 2.0 3.0 0.00 0.00 0.00 82 1005.2
20260903164501 88 107 1.0 3.0 0.00 0.00 0.00 82 1005.2
20260903164356 88 121 1.0 3.0 0.00 0.00 0.00 81 1005.0
20260903164300 88 106 1.0 3.0 0.00 0.00 0.00 81 1005.1
20260903164201 88 106 1.0 3.0 0.00 0.00 0.00 81 1005.1
20260903164002 88 76 2.0 4.0 0.00 0.00 0.00 81 1005.0
20260903163701 88 161 1.0 5.0 0.00 0.00 0.00 80 1005.0
20260903163558 89 205 1.0 5.0 0.00 0.00 0.00 80 1005.0
20260903163503 89 96 1.0 5.0 0.00 0.00 0.00 80 1005.0
20260903163259 89 79 2.0 5.0 0.00 0.00 0.00 80 1004.9
20260903163159 89 97 3.0 5.0 0.00 0.00 0.00 80 1005.0
20260903163056 88 92 2.0 5.0 0.00 0.00 0.00 79 1005.0
20260903163011 88 80 1.0 4.0 0.00 0.00 0.00 78 1005.0
20260903162900 88 121 1.0 4.0 0.00 0.00 0.00 78 1005.0
20260903162801 88 121 1.0 4.0 0.00 0.00 0.00 78 1004.9
20260903162700 88 121 1.0 4.0 0.00 0.00 0.00 78 1004.9
20260903162557 88 121 1.0 4.0 0.00 0.00 0.00 78 1005.0
20260903162503 88 155 1.0 4.0 0.00 0.00 0.00 78 1004.9
20260903162400 88 124 2.0 4.0 0.00 0.00 0.00 78 1005.0
20260903162301 88 208 2.0 4.0 0.00 0.00 0.00 78 1005.0
20260903162158 88 126 1.0 4.0 0.00 0.00 0.00 78 1005.0
20260903162102 88 139 0.0 4.0 0.00 0.00 0.00 78 1005.0
20260903162005 88 140 1.0 4.0 0.00 0.00 0.00 78 1005.0
20260903161758 88 161 2.0 4.0 0.00 0.00 0.00 78 1005.1
20260903161658 88 178 2.0 6.0 0.00 0.00 0.00 78 1005.0
20260903161556 88 174 2.0 6.0 0.00 0.00 0.00 78 1005.2
20260903161502 88 156 3.0 6.0 0.00 0.00 0.00 78 1005.2
20260903161358 88 174 2.0 6.0 0.00 0.00 0.00 78 1005.2
20260903161259 88 150 2.0 6.0 0.00 0.00 0.00 78 1005.3
20260903160959 88 169 3.0 6.0 0.00 0.00 0.00 79 1005.2
20260903160901 89 121 3.0 6.0 0.00 0.00 0.00 78 1005.3
20260903160756 88 151 3.0 6.0 0.00 0.00 0.00 79 1005.2
20260903160601 89 160 3.0 6.0 0.00 0.00 0.00 79 1005.3
20260903160503 89 169 3.0 6.0 0.00 0.00 0.00 79 1005.2
20260903160357 89 183 2.0 6.0 0.00 0.00 0.00 79 1005.2
20260903160259 89 158 3.0 6.0 0.00 0.00 0.00 79 1005.1
20260903160159 89 186 4.0 6.0 0.00 0.00 0.00 79 1005.0
20260903160059 89 190 4.0 6.0 0.00 0.00 0.00 79 1005.0
20260903160010 89 159 4.0 7.0 0.00 0.00 0.00 79 1005.0
20260903155859 89 165 4.0 5.0 0.00 0.00 0.00 79 1004.9
20260903155759 89 157 4.0 5.0 0.00 0.00 0.00 79 1005.0
20260903155659 89 163 4.0 6.0 0.00 0.00 0.00 79 1005.0
20260903155602 89 165 4.0 6.0 0.00 0.00 0.00 79 1005.0
20260903155356 89 159 4.0 6.0 0.00 0.00 0.00 79 1005.0
20260903155300 89 168 4.0 6.0 0.00 0.00 0.00 79 1004.9
20260903155159 89 166 2.0 4.0 0.00 0.00 0.00 79 1005.0
20260903155100 89 178 1.0 4.0 0.00 0.00 0.00 79 1005.1
20260903154900 89 132 2.0 4.0 0.00 0.00 0.00 79 1005.1
20260903154759 89 164 2.0 4.0 0.00 0.00 0.00 79 1005.0
20260903154702 89 146 1.0 4.0 0.00 0.00 0.00 79 1005.0
20260903154613 89 159 1.0 4.0 0.00 0.00 0.00 79 1005.0
20260903143302 89 212 1.0 2.0 0.00 0.00 0.00 78 1004.1
20260903143201 89 212 1.0 2.0 0.00 0.00 0.00 78 1004.2
20260903143058 89 212 1.0 2.0 0.00 0.00 0.00 78 1004.2
20260903143006 89 172 1.0 2.0 0.00 0.00 0.00 78 1004.1
20260903142901 89 172 1.0 3.0 0.00 0.00 0.00 78 1004.1
20260903142800 89 172 0.0 4.0 0.00 0.00 0.00 78 1004.1
20260903142701 89 172 0.0 4.0 0.00 0.00 0.00 78 1004.1
20260903142604 89 172 0.0 4.0 0.00 0.00 0.00 78 1004.1
20260903142501 89 172 1.0 4.0 0.00 0.00 0.00 78 1004.0
20260903142401 89 172 1.0 4.0 0.00 0.00 0.00 78 1004.1
20260903142306 89 172 1.0 4.0 0.00 0.00 0.00 78 1004.1
20260903142159 89 172 1.0 4.0 0.00 0.00 0.00 78 1004.1
20260903142059 89 172 2.0 4.0 0.00 0.00 0.00 78 1004.1
20260903142006 89 172 3.0 5.0 0.00 0.00 0.00 78 1003.9
20260903141900 89 171 2.0 4.0 0.00 0.00 0.00 78 1004.0
20260903141803 89 150 2.0 3.0 0.00 0.00 0.00 78 1004.0
20260903141700 89 164 2.0 3.0 0.00 0.00 0.00 78 1003.9
20260903141505 89 180 1.0 3.0 0.00 0.00 0.00 78 1003.9
20260903141401 89 167 1.0 5.0 0.00 0.00 0.00 78 1003.9
20260903141302 89 188 1.0 5.0 0.00 0.00 0.00 78 1003.9
20260903141201 89 188 2.0 5.0 0.00 0.00 0.00 78 1003.9
20260903141107 89 188 1.0 5.0 0.00 0.00 0.00 78 1003.9
20260903141018 89 195 1.0 5.0 0.00 0.00 0.00 78 1003.9
20260903140800 89 195 2.0 5.0 0.00 0.00 0.00 78 1003.9
20260903140601 89 209 2.0 5.0 0.00 0.00 0.00 78 1003.9
20260903140525 89 185 1.0 4.0 0.00 0.00 0.00 78 1003.8
20260903140401 89 195 2.0 4.0 0.00 0.00 0.00 78 1003.9
20260903140258 89 195 2.0 4.0 0.00 0.00 0.00 78 1003.8
20260903140203 89 219 3.0 4.0 0.00 0.00 0.00 77 1003.8
20260903140107 89 221 3.0 4.0 0.00 0.00 0.00 77 1003.8
20260903135805 89 200 1.0 4.0 0.00 0.00 0.00 77 1003.8
20260903135700 89 187 1.0 4.0 0.00 0.00 0.00 77 1003.6
20260903135559 89 187 2.0 4.0 0.00 0.00 0.00 77 1003.7
20260903135505 89 187 2.0 4.0 0.00 0.00 0.00 77 1003.7
20260903135301 89 207 2.0 4.0 0.00 0.00 0.00 77 1003.5
20260903135202 89 149 2.0 4.0 0.00 0.00 0.00 77 1003.5
20260903135102 89 179 2.0 4.0 0.00 0.00 0.00 77 1003.5
20260903135007 90 183 2.0 4.0 0.00 0.00 0.00 77 1003.5
20260903134900 90 178 2.0 4.0 0.00 0.00 0.00 77 1003.6
20260903134801 90 191 2.0 4.0 0.00 0.00 0.00 77 1003.5
20260903134630 90 197 3.0 5.0 0.00 0.00 0.00 77 1003.5
20260903134531 90 208 3.0 5.0 0.00 0.00 0.00 77 1003.5
20260903134442 90 171 3.0 5.0 0.00 0.00 0.00 77 1003.5
20260903031403 82 57 1.0 6.0 0.00 0.00 0.00 84 1007.5
20260903031305 82 124 1.0 6.0 0.00 0.00 0.00 84 1007.4
20260903031202 82 87 3.0 6.0 0.00 0.00 0.00 84 1007.5
20260903031102 82 64 3.0 6.0 0.00 0.00 0.00 84 1007.4
20260903031005 82 74 3.0 7.0 0.00 0.00 0.00 84 1007.5
20260903030859 82 104 3.0 7.0 0.00 0.00 0.00 84 1007.4
20260903030803 82 51 3.0 7.0 0.00 0.00 0.00 84 1007.4
20260903030701 82 110 4.0 7.0 0.00 0.00 0.00 84 1007.3
20260903030502 81 81 4.0 7.0 0.00 0.00 0.00 84 1007.3
20260903030303 81 76 3.0 7.0 0.00 0.00 0.00 85 1007.4
20260903030011 81 53 3.0 7.0 0.00 0.00 0.00 85 1007.4
20260903025659 81 108 1.0 7.0 0.00 0.00 0.00 85 1007.4
20260903025559 81 136 2.0 7.0 0.00 0.00 0.00 85 1007.4
20260903025507 81 159 2.0 7.0 0.00 0.00 0.00 85 1007.4
20260903025306 81 113 3.0 7.0 0.00 0.00 0.00 85 1007.5
20260903025159 81 96 3.0 7.0 0.00 0.00 0.00 85 1007.5
20260903025008 80 132 3.0 7.0 0.00 0.00 0.00 85 1007.4
20260903024904 80 138 3.0 7.0 0.00 0.00 0.00 85 1007.4
20260903024803 80 124 4.0 7.0 0.00 0.00 0.00 85 1007.4
20260903024702 80 121 4.0 7.0 0.00 0.00 0.00 85 1007.4
20260903024607 80 102 4.0 7.0 0.00 0.00 0.00 85 1007.3
20260903024403 80 123 3.0 5.0 0.00 0.00 0.00 86 1007.1
20260903011106 79 67 5.0 10.0 0.00 0.00 0.00 83 1006.9
20260903011010 79 48 5.0 10.0 0.00 0.00 0.00 83 1006.8
20260903010804 79 96 5.0 8.0 0.00 0.00 0.00 83 1006.8
20260903010704 79 65 5.0 8.0 0.00 0.00 0.00 83 1006.7
20260903010602 79 43 4.0 7.0 0.00 0.00 0.00 83 1006.7
20260903010403 79 107 4.0 8.0 0.00 0.00 0.00 82 1006.7
20260903010305 79 95 3.0 8.0 0.00 0.00 0.00 82 1006.7
20260903005912 79 88 4.0 8.0 0.00 0.00 0.00 82 1006.6
20260903005758 79 101 4.0 8.0 0.00 0.00 0.00 82 1006.7
20260903005606 79 333 2.0 7.0 0.00 0.00 0.00 82 1006.6
20260903005402 79 72 3.0 7.0 0.00 0.00 0.00 82 1006.6
20260903005107 80 113 3.0 7.0 0.00 0.00 0.00 82 1006.3
20260903005009 80 49 3.0 7.0 0.00 0.00 0.00 82 1006.3
20260903004802 80 106 3.0 7.0 0.00 0.00 0.00 82 1006.3
20260903004603 80 103 4.0 6.0 0.00 0.00 0.00 82 1006.2
20260903004505 80 98 3.0 7.0 0.00 0.00 0.00 82 1006.2
20260903004359 80 134 3.0 7.0 0.00 0.00 0.00 81 1006.1
20260903004303 80 111 3.0 7.0 0.00 0.00 0.00 82 1006.2
20260903004202 80 120 3.0 7.0 0.00 0.00 0.00 81 1006.2
20260903004004 80 44 2.0 9.0 0.00 0.00 0.00 81 1006.2
20260903003901 80 71 2.0 9.0 0.00 0.00 0.00 81 1006.2
20260903003658 80 123 3.0 10.0 0.00 0.00 0.00 81 1006.4
20260903003600 80 88 4.0 10.0 0.00 0.00 0.00 81 1006.3
20260903003508 80 137 5.0 10.0 0.00 0.00 0.00 81 1006.3
20260903003404 80 80 4.0 10.0 0.00 0.00 0.00 81 1006.3
20260903003304 80 105 4.0 10.0 0.00 0.00 0.00 81 1006.2
20260903003201 80 75 3.0 10.0 0.00 0.00 0.00 81 1006.1
20260903003102 80 112 4.0 10.0 0.00 0.00 0.00 81 1006.0
20260903003007 80 143 6.0 10.0 0.00 0.00 0.00 81 1006.1
20260903002902 80 74 5.0 10.0 0.00 0.00 0.00 81 1006.0
20260903002800 80 132 5.0 10.0 0.00 0.00 0.00 82 1006.0
20260903002710 80 101 5.0 10.0 0.00 0.00 0.00 81 1006.0
20260902235104 83 90 5.0 9.0 0.00 0.00 0.00 90 1005.9
20260902235002 83 116 3.0 7.0 0.00 0.00 0.00 89 1005.9
20260902234901 83 107 4.0 7.0 0.00 0.00 0.00 89 1006.0
20260902234803 83 123 5.0 7.0 0.00 0.00 0.00 89 1005.9
20260902234700 83 84 4.0 8.0 0.00 0.00 0.00 89 1006.0
20260902234604 83 103 4.0 8.0 0.00 0.00 0.00 89 1006.0
20260902234300 83 90 3.0 7.0 0.00 0.00 0.00 89 1005.9
20260902234201 83 101 3.0 7.0 0.00 0.00 0.00 89 1005.8
20260902234059 83 100 2.0 5.0 0.00 0.00 0.00 89 1005.8
20260902234005 83 72 2.0 5.0 0.00 0.00 0.00 89 1005.7
20260902233900 83 80 2.0 5.0 0.00 0.00 0.00 89 1005.7
20260902233800 83 71 1.0 5.0 0.00 0.00 0.00 89 1005.7
20260902233505 83 152 2.0 5.0 0.00 0.00 0.00 89 1005.7
20260902233400 83 66 3.0 5.0 0.00 0.00 0.00 89 1005.8
20260902233259 83 62 2.0 8.0 0.00 0.00 0.00 89 1005.8
20260902233158 83 67 1.0 8.0 0.00 0.00 0.00 89 1005.7
20260902233002 83 86 2.0 8.0 0.00 0.00 0.00 89 1005.8
20260902232901 83 110 2.0 8.0 0.00 0.00 0.00 89 1005.9
20260902232800 83 63 1.0 8.0 0.00 0.00 0.00 89 1005.9
20260902232701 83 80 2.0 8.0 0.00 0.00 0.00 89 1005.9
20260902232500 83 88 3.0 8.0 0.00 0.00 0.00 89 1005.8
20260902232400 83 74 2.0 5.0 0.00 0.00 0.00 89 1005.8
20260902232201 83 84 3.0 5.0 0.00 0.00 0.00 89 1005.7
20260902232101 83 56 2.0 5.0 0.00 0.00 0.00 89 1005.8
20260902232006 83 80 2.0 5.0 0.00 0.00 0.00 89 1005.8
20260902231902 83 85 2.0 5.0 0.00 0.00 0.00 89 1005.8
20260902231757 83 79 2.0 5.0 0.00 0.00 0.00 89 1005.8
20260902231704 83 80 2.0 5.0 0.00 0.00 0.00 89 1005.8
20260902231601 83 88 3.0 5.0 0.00 0.00 0.00 89 1005.8
20260902231504 83 40 3.0 5.0 0.00 0.00 0.00 89 1005.8
20260902231401 83 51 2.0 5.0 0.00 0.00 0.00 89 1005.7
20260902231159 83 70 3.0 5.0 0.00 0.00 0.00 89 1005.8
20260902231103 83 58 3.0 5.0 0.00 0.00 0.00 89 1005.8
20260902231005 83 71 3.0 5.0 0.00 0.00 0.00 89 1005.7
20260902230901 83 46 2.0 5.0 0.00 0.00 0.00 89 1005.6
20260902230805 83 82 3.0 5.0 0.00 0.00 0.00 89 1005.7
20260902230701 83 63 3.0 5.0 0.00 0.00 0.00 89 1005.6
20260902230600 83 74 2.0 5.0 0.00 0.00 0.00 89 1005.6
20260902230401 83 57 3.0 5.0 0.00 0.00 0.00 89 1005.7
20260902230300 83 51 3.0 5.0 0.00 0.00 0.00 88 1005.6
20260902230203 83 59 3.0 5.0 0.00 0.00 0.00 88 1005.6
20260902230059 83 67 3.0 5.0 0.00 0.00 0.00 88 1005.7
20260902230001 83 67 3.0 5.0 0.00 0.00 0.00 88 1005.6
20260902225940 83 67 3.0 5.0 0.00 0.00 0.00 88 1005.6